SPLAW EPDE-EPDE

Flight info

Callsign SPLAW
Flight time 1h 28m
Altitude 1500
Route EPDEN EPDEL EPWAG EPWAK EPWAN EPWAO EPWA EPWAR EPWAX EPWAT EPDET EPDES
Aircraft R44/M-DGV/C

Departure

Time 2026-04-20 17:49
Airport Deblin Military Air Base (EPDE)

Arrival

Time 2026-04-20 19:18
Airport Deblin Military Air Base (EPDE)
Time Latitude Longitude Altitude Speed Heading
2026-04-20 17:44 51.55571 21.86860 379 ft 0 kts 195°
2026-04-20 17:45 51.55572 21.86863 385 ft 1 kts 73°
2026-04-20 17:46 51.55573 21.86869 410 ft 1 kts 65°
2026-04-20 17:46 51.55563 21.86895 465 ft 7 kts 86°
2026-04-20 17:46 51.55619 21.87010 466 ft 14 kts 66°
2026-04-20 17:46 51.55618 21.87167 446 ft 11 kts 115°
2026-04-20 17:47 51.55546 21.87360 450 ft 26 kts 108°
2026-04-20 17:47 51.55465 21.87573 430 ft 21 kts 109°
2026-04-20 17:47 51.55512 21.87720 421 ft 26 kts 24°
2026-04-20 17:47 51.55607 21.87763 406 ft 6 kts 58°
2026-04-20 17:48 51.55596 21.87891 432 ft 37 kts 111°
2026-04-20 17:48 51.55391 21.88420 502 ft 66 kts 118°
2026-04-20 17:48 51.55147 21.89095 600 ft 72 kts 117°
2026-04-20 17:48 51.54887 21.89782 690 ft 73 kts 115°
2026-04-20 17:49 51.54615 21.90503 697 ft 76 kts 117°
2026-04-20 17:49 51.54359 21.91200 773 ft 71 kts 111°
2026-04-20 17:49 51.54243 21.91904 1017 ft 61 kts 95°
2026-04-20 17:49 51.54344 21.92602 1117 ft 74 kts 61°
2026-04-20 17:50 51.54559 21.93055 1110 ft 81 kts 45°
2026-04-20 17:50 51.55016 21.93475 1212 ft 74 kts 29°
2026-04-20 17:50 51.55494 21.93802 1273 ft 78 kts 27°
2026-04-20 17:50 51.56052 21.94124 1218 ft 88 kts 22°
2026-04-20 17:51 51.56640 21.94434 1200 ft 90 kts 19°
2026-04-20 17:51 51.57276 21.94592 1170 ft 94 kts
2026-04-20 17:51 51.57926 21.94348 1166 ft 100 kts 334°
2026-04-20 17:51 51.58474 21.93664 1225 ft 95 kts 324°
2026-04-20 17:52 51.58977 21.92965 1252 ft 99 kts 322°
2026-04-20 17:52 51.59456 21.92121 1239 ft 104 kts 313°
2026-04-20 17:52 51.59915 21.91264 1323 ft 98 kts 316°
2026-04-20 17:52 51.60345 21.90473 1465 ft 92 kts 316°
2026-04-20 17:53 51.60732 21.89596 1512 ft 96 kts 311°
2026-04-20 17:53 51.61153 21.88769 1576 ft 97 kts 318°
2026-04-20 17:53 51.61630 21.87945 1587 ft 102 kts 321°
2026-04-20 17:53 51.62121 21.87135 1633 ft 102 kts 320°
2026-04-20 17:54 51.62602 21.86333 1712 ft 101 kts 322°
2026-04-20 17:54 51.63126 21.85512 1658 ft 110 kts 322°
2026-04-20 17:54 51.63654 21.84601 1629 ft 112 kts 315°
2026-04-20 17:54 51.64168 21.83662 1575 ft 113 kts 317°
2026-04-20 17:55 51.64709 21.82775 1558 ft 105 kts 323°
2026-04-20 17:55 51.65218 21.81951 1566 ft 104 kts 323°
2026-04-20 17:55 51.65754 21.81146 1560 ft 106 kts 324°
2026-04-20 17:55 51.66297 21.80331 1532 ft 109 kts 322°
2026-04-20 17:56 51.66836 21.79416 1467 ft 111 kts 319°
2026-04-20 17:56 51.67339 21.78535 1528 ft 107 kts 317°
2026-04-20 17:56 51.67831 21.77637 1556 ft 104 kts 319°
2026-04-20 17:56 51.68326 21.76758 1566 ft 105 kts 320°
2026-04-20 17:57 51.68849 21.75935 1566 ft 106 kts 324°
2026-04-20 17:57 51.69394 21.75109 1550 ft 110 kts 320°
2026-04-20 17:57 51.69930 21.74232 1529 ft 112 kts 319°
2026-04-20 17:57 51.70471 21.73334 1513 ft 109 kts 318°
2026-04-20 17:58 51.70977 21.72463 1570 ft 105 kts 319°
2026-04-20 17:58 51.71493 21.71625 1583 ft 106 kts 318°
2026-04-20 17:58 51.72004 21.70742 1537 ft 110 kts 319°
2026-04-20 17:58 51.72535 21.69837 1542 ft 106 kts 319°
2026-04-20 17:59 51.73039 21.69023 1588 ft 104 kts 320°
2026-04-20 17:59 51.73566 21.68150 1489 ft 114 kts 318°
2026-04-20 17:59 51.74102 21.67231 1493 ft 111 kts 318°
2026-04-20 17:59 51.74651 21.66319 1387 ft 117 kts 315°
2026-04-20 18:00 51.75162 21.65272 1244 ft 122 kts 309°
2026-04-20 18:00 51.75651 21.64233 1317 ft 103 kts 310°
2026-04-20 18:00 51.76036 21.63434 1581 ft 84 kts 319°
2026-04-20 18:00 51.76409 21.62650 1659 ft 89 kts 316°
2026-04-20 18:01 51.76752 21.61859 1845 ft 90 kts 313°
2026-04-20 18:01 51.77157 21.60966 972 ft 104 kts 333°
2026-04-20 18:01 51.77571 21.60463 715 ft 54 kts 252°
2026-04-20 18:01 51.77483 21.60154 641 ft 31 kts 322°
2026-04-20 18:02 51.77703 21.59770 779 ft 62 kts 317°
2026-04-20 18:02 51.77927 21.59240 948 ft 53 kts 317°
2026-04-20 18:02 51.78106 21.58668 1034 ft 57 kts 304°
2026-04-20 18:02 51.78283 21.58089 1187 ft 62 kts 305°
2026-04-20 18:03 51.78529 21.57389 1252 ft 78 kts 308°
2026-04-20 18:03 51.78830 21.56617 1376 ft 82 kts 311°
2026-04-20 18:03 51.79161 21.55799 1427 ft 94 kts 302°
2026-04-20 18:03 51.79453 21.54814 1482 ft 99 kts 297°
2026-04-20 18:04 51.79678 21.53721 1514 ft 104 kts 290°
2026-04-20 18:04 51.79861 21.52638 1714 ft 92 kts 290°
2026-04-20 18:04 51.80003 21.51480 1595 ft 111 kts 282°
2026-04-20 18:04 51.80134 21.50236 1594 ft 113 kts 284°
2026-04-20 18:05 51.80533 21.47762 1609 ft 114 kts 288°
2026-04-20 18:05 51.80734 21.46556 1651 ft 113 kts 288°
2026-04-20 18:05 51.80931 21.45330 1637 ft 116 kts 288°
2026-04-20 18:06 51.81133 21.44022 1564 ft 121 kts 287°
2026-04-20 18:06 51.81340 21.42755 1601 ft 113 kts 290°
2026-04-20 18:06 51.81564 21.41553 1624 ft 108 kts 291°
2026-04-20 18:06 51.81816 21.40417 1623 ft 110 kts 296°
2026-04-20 18:07 51.82091 21.39251 1600 ft 114 kts 291°
2026-04-20 18:07 51.82341 21.38030 1596 ft 113 kts 293°
2026-04-20 18:07 51.82627 21.36849 1594 ft 111 kts 295°
2026-04-20 18:07 51.82887 21.35730 1714 ft 103 kts 292°
2026-04-20 18:08 51.83135 21.34586 1576 ft 116 kts 298°
2026-04-20 18:08 51.83521 21.33449 1553 ft 115 kts 304°
2026-04-20 18:08 51.83929 21.32340 1513 ft 115 kts 307°
2026-04-20 18:08 51.84376 21.31288 1510 ft 113 kts 313°
2026-04-20 18:09 51.84915 21.30347 1452 ft 113 kts 323°
2026-04-20 18:09 51.85498 21.29607 1550 ft 100 kts 334°
2026-04-20 18:09 51.86105 21.29024 1526 ft 103 kts 336°
2026-04-20 18:09 51.86730 21.28481 1543 ft 101 kts 342°
2026-04-20 18:10 51.87377 21.28037 1528 ft 101 kts 346°
2026-04-20 18:10 51.88054 21.27699 1504 ft 102 kts 353°
2026-04-20 18:10 51.88737 21.27505 1537 ft 98 kts 358°
2026-04-20 18:10 51.89397 21.27412 1581 ft 95 kts
2026-04-20 18:11 51.90071 21.27258 1535 ft 101 kts 356°
2026-04-20 18:11 51.90771 21.27045 1494 ft 104 kts 353°
2026-04-20 18:11 51.91474 21.26790 1455 ft 106 kts 349°
2026-04-20 18:11 51.92180 21.26428 1407 ft 103 kts 348°
2026-04-20 18:12 51.92858 21.26098 1429 ft 98 kts 349°
2026-04-20 18:12 51.93479 21.25834 1532 ft 89 kts 355°
2026-04-20 18:12 51.94092 21.25613 1551 ft 91 kts 357°
2026-04-20 18:12 51.94707 21.25426 1564 ft 93 kts 358°
2026-04-20 18:13 51.95349 21.25234 1604 ft 91 kts 359°
2026-04-20 18:13 51.95951 21.25067 1701 ft 89 kts 358°
2026-04-20 18:13 51.96596 21.24826 1662 ft 99 kts 351°
2026-04-20 18:13 51.97261 21.24471 1628 ft 102 kts 348°
2026-04-20 18:14 51.97967 21.24097 1515 ft 109 kts 345°
2026-04-20 18:14 51.98670 21.23702 1498 ft 105 kts 353°
2026-04-20 18:14 51.99366 21.23493 1527 ft 100 kts
2026-04-20 18:14 52.00059 21.23433 1534 ft 98 kts
2026-04-20 18:15 52.00738 21.23438 1575 ft 92 kts
2026-04-20 18:15 52.01371 21.23427 1652 ft 92 kts
2026-04-20 18:15 52.02015 21.23490 1643 ft 94 kts 11°
2026-04-20 18:15 52.02682 21.23555 1628 ft 98 kts
2026-04-20 18:16 52.03379 21.23572 1577 ft 103 kts
2026-04-20 18:16 52.04110 21.23518 1496 ft 108 kts
2026-04-20 18:16 52.04843 21.23460 1526 ft 101 kts
2026-04-20 18:16 52.05527 21.23426 1536 ft 99 kts
2026-04-20 18:17 52.06232 21.23401 1471 ft 104 kts
2026-04-20 18:17 52.06972 21.23395 1410 ft 103 kts
2026-04-20 18:17 52.07648 21.23329 1528 ft 92 kts
2026-04-20 18:17 52.08291 21.23222 1587 ft 93 kts 360°
2026-04-20 18:18 52.08942 21.23166 1598 ft 95 kts
2026-04-20 18:18 52.09618 21.23127 1588 ft 99 kts 355°
2026-04-20 18:18 52.10270 21.22759 1579 ft 105 kts 339°
2026-04-20 18:18 52.10895 21.22156 1568 ft 107 kts 331°
2026-04-20 18:19 52.11503 21.21405 1506 ft 111 kts 324°
2026-04-20 18:19 52.12102 21.20596 1475 ft 109 kts 327°
2026-04-20 18:19 52.12683 21.19888 1542 ft 101 kts 330°
2026-04-20 18:19 52.13260 21.19235 1559 ft 102 kts 332°
2026-04-20 18:20 52.13847 21.18573 1562 ft 102 kts 332°
2026-04-20 18:20 52.14438 21.17938 1585 ft 101 kts 333°
2026-04-20 18:20 52.15025 21.17266 1557 ft 105 kts 328°
2026-04-20 18:20 52.15624 21.16572 1514 ft 108 kts 332°
2026-04-20 18:21 52.16257 21.15885 1481 ft 107 kts 332°
2026-04-20 18:21 52.16850 21.15260 1562 ft 100 kts 335°
2026-04-20 18:21 52.17418 21.14619 1598 ft 101 kts 328°
2026-04-20 18:21 52.17999 21.13864 1498 ft 107 kts 324°
2026-04-20 18:22 52.18538 21.13146 1502 ft 95 kts 330°
2026-04-20 18:22 52.19104 21.12591 1448 ft 97 kts 340°
2026-04-20 18:22 52.19734 21.12127 1348 ft 100 kts 341°
2026-04-20 18:22 52.20408 21.11594 1044 ft 108 kts 335°
2026-04-20 18:23 52.20990 21.10965 1055 ft 97 kts 327°
2026-04-20 18:23 52.21461 21.10258 1170 ft 87 kts 306°
2026-04-20 18:23 52.21439 21.09317 1281 ft 92 kts 252°
2026-04-20 18:23 52.21133 21.08311 1269 ft 102 kts 235°
2026-04-20 18:24 52.20730 21.07333 1321 ft 104 kts 232°
2026-04-20 18:24 52.20335 21.06312 1357 ft 104 kts 232°
2026-04-20 18:24 52.19939 21.05536 1316 ft 68 kts 206°
2026-04-20 18:24 52.19655 21.05190 1313 ft 39 kts 192°
2026-04-20 18:25 52.19448 21.05057 1335 ft 35 kts 209°
2026-04-20 18:25 52.19100 21.04702 1265 ft 75 kts 198°
2026-04-20 18:25 52.18783 21.03955 1153 ft 88 kts 251°
2026-04-20 18:25 52.18619 21.03011 1115 ft 85 kts 257°
2026-04-20 18:26 52.18563 21.02089 1150 ft 81 kts 275°
2026-04-20 18:26 52.18567 21.01133 1276 ft 88 kts 258°
2026-04-20 18:26 52.18358 21.00161 1254 ft 92 kts 249°
2026-04-20 18:26 52.18218 20.99199 1242 ft 84 kts 264°
2026-04-20 18:27 52.18285 20.98268 1133 ft 78 kts 308°
2026-04-20 18:27 52.18623 20.97725 1208 ft 62 kts 346°
2026-04-20 18:27 52.19013 20.97662 1284 ft 56 kts 26°
2026-04-20 18:27 52.19324 20.98101 1297 ft 64 kts 58°
2026-04-20 18:28 52.19478 20.98806 1303 ft 67 kts 82°
2026-04-20 18:28 52.19419 20.99549 1321 ft 62 kts 95°
2026-04-20 18:28 52.19340 21.00212 1330 ft 59 kts 94°
2026-04-20 18:28 52.19248 21.00890 1274 ft 64 kts 96°
2026-04-20 18:29 52.19161 21.01622 1209 ft 68 kts 95°
2026-04-20 18:29 52.18910 21.02291 1198 ft 70 kts 130°
2026-04-20 18:29 52.18502 21.02649 1280 ft 68 kts 154°
2026-04-20 18:29 52.18008 21.02601 1315 ft 78 kts 192°
2026-04-20 18:30 52.17630 21.01933 1359 ft 80 kts 244°
2026-04-20 18:30 52.17583 21.01143 1410 ft 68 kts 295°
2026-04-20 18:30 52.17825 21.00381 1280 ft 91 kts 314°
2026-04-20 18:30 52.18246 20.99500 1206 ft 98 kts 315°
2026-04-20 18:31 52.18701 20.98659 1110 ft 99 kts 321°
2026-04-20 18:31 52.19200 20.97966 1160 ft 89 kts 327°
2026-04-20 18:31 52.19651 20.97294 1190 ft 84 kts 323°
2026-04-20 18:31 52.19879 20.96506 1280 ft 76 kts 270°
2026-04-20 18:32 52.19686 20.95740 1166 ft 74 kts 237°
2026-04-20 18:32 52.19360 20.95033 1086 ft 80 kts 215°
2026-04-20 18:32 52.18847 20.94811 906 ft 73 kts 162°
2026-04-20 18:32 52.18394 20.95115 672 ft 70 kts 145°
2026-04-20 18:33 52.18012 20.95444 553 ft 51 kts 142°
2026-04-20 18:33 52.17756 20.95674 477 ft 32 kts 160°
2026-04-20 18:33 52.17577 20.95825 379 ft 28 kts 161°
2026-04-20 18:33 52.17487 20.95924 329 ft 6 kts 170°
2026-04-20 18:34 52.17287 20.96061 405 ft 58 kts 157°
2026-04-20 18:34 52.16876 20.96417 458 ft 74 kts 148°
2026-04-20 18:34 52.16430 20.96807 576 ft 73 kts 149°
2026-04-20 18:34 52.15972 20.97210 631 ft 76 kts 146°
2026-04-20 18:35 52.15484 20.97512 740 ft 75 kts 188°
2026-04-20 18:35 52.15216 20.96871 900 ft 69 kts 288°
2026-04-20 18:35 52.15324 20.96085 1039 ft 76 kts 292°
2026-04-20 18:35 52.15477 20.95181 1110 ft 87 kts 286°
2026-04-20 18:36 52.15382 20.94164 1090 ft 106 kts 245°
2026-04-20 18:36 52.14929 20.93087 934 ft 117 kts 231°
2026-04-20 18:36 52.14463 20.92052 954 ft 110 kts 236°
2026-04-20 18:36 52.14102 20.91077 1147 ft 94 kts 243°
2026-04-20 18:37 52.13827 20.90113 1294 ft 92 kts 245°
2026-04-20 18:37 52.13586 20.89122 1352 ft 104 kts 245°
2026-04-20 18:37 52.13233 20.88075 1367 ft 108 kts 232°
2026-04-20 18:37 52.12762 20.87062 1332 ft 112 kts 225°
2026-04-20 18:38 52.12217 20.86109 1290 ft 115 kts 220°
2026-04-20 18:38 52.11662 20.85237 1389 ft 108 kts 221°
2026-04-20 18:38 52.11155 20.84319 1481 ft 107 kts 224°
2026-04-20 18:38 52.10556 20.83581 1417 ft 112 kts 203°
2026-04-20 18:39 52.09840 20.83031 1360 ft 115 kts 195°
2026-04-20 18:39 52.09074 20.82650 1325 ft 115 kts 187°
2026-04-20 18:39 52.08297 20.82394 1313 ft 113 kts 181°
2026-04-20 18:39 52.07517 20.82252 1284 ft 111 kts 176°
2026-04-20 18:40 52.07007 20.82210 1282 ft 111 kts 175°
2026-04-20 18:40 52.06264 20.82167 1353 ft 104 kts 174°
2026-04-20 18:40 52.05529 20.82161 1294 ft 108 kts 171°
2026-04-20 18:40 52.04783 20.82211 1273 ft 107 kts 167°
2026-04-20 18:41 52.04071 20.82356 1328 ft 101 kts 165°
2026-04-20 18:41 52.03387 20.82497 1356 ft 98 kts 165°
2026-04-20 18:41 52.02711 20.82621 1392 ft 100 kts 168°
2026-04-20 18:41 52.01993 20.82643 1396 ft 103 kts 172°
2026-04-20 18:42 52.01281 20.82662 1429 ft 103 kts 168°
2026-04-20 18:42 52.00586 20.82715 1515 ft 99 kts 168°
2026-04-20 18:42 51.99897 20.82744 1547 ft 101 kts 168°
2026-04-20 18:42 51.99159 20.82883 1422 ft 107 kts 166°
2026-04-20 18:43 51.98458 20.83012 1523 ft 99 kts 163°
2026-04-20 18:43 51.97792 20.83162 1621 ft 94 kts 163°
2026-04-20 18:43 51.97121 20.83323 1532 ft 104 kts 161°
2026-04-20 18:43 51.96367 20.83650 1344 ft 115 kts 158°
2026-04-20 18:44 51.95603 20.83976 1304 ft 112 kts 159°
2026-04-20 18:44 51.94880 20.84225 1335 ft 107 kts 164°
2026-04-20 18:44 51.94140 20.84445 1278 ft 107 kts 162°
2026-04-20 18:44 51.93407 20.84707 1253 ft 107 kts 161°
2026-04-20 18:45 51.92706 20.84925 1262 ft 104 kts 163°
2026-04-20 18:45 51.92012 20.85165 1263 ft 103 kts 158°
2026-04-20 18:45 51.91319 20.85430 1291 ft 98 kts 160°
2026-04-20 18:45 51.90674 20.85633 1400 ft 91 kts 162°
2026-04-20 18:46 51.90050 20.85783 1494 ft 89 kts 161°
2026-04-20 18:46 51.89432 20.85918 1626 ft 86 kts 163°
2026-04-20 18:46 51.88859 20.86062 1748 ft 84 kts 160°
2026-04-20 18:46 51.88293 20.86266 1815 ft 83 kts 154°
2026-04-20 18:47 51.87731 20.86562 1805 ft 87 kts 145°
2026-04-20 18:47 51.87194 20.87047 1766 ft 88 kts 132°
2026-04-20 18:47 51.86732 20.87715 1708 ft 86 kts 127°
2026-04-20 18:47 51.86319 20.88373 1697 ft 82 kts 120°
2026-04-20 18:48 51.85974 20.89063 1698 ft 78 kts 115°
2026-04-20 18:48 51.85624 20.89826 1548 ft 90 kts 116°
2026-04-20 18:48 51.85287 20.90667 1486 ft 84 kts 112°
2026-04-20 18:48 51.84999 20.91449 1551 ft 82 kts 110°
2026-04-20 18:49 51.84719 20.92340 1453 ft 95 kts 108°
2026-04-20 18:49 51.84427 20.93298 1439 ft 97 kts 110°
2026-04-20 18:49 51.84142 20.94224 1537 ft 88 kts 108°
2026-04-20 18:49 51.83880 20.95186 1376 ft 98 kts 105°
2026-04-20 18:50 51.83614 20.96160 1433 ft 92 kts 106°
2026-04-20 18:50 51.83357 20.97133 1406 ft 94 kts 106°
2026-04-20 18:50 51.83095 20.98070 1469 ft 88 kts 108°
2026-04-20 18:50 51.82829 20.98949 1467 ft 90 kts 108°
2026-04-20 18:51 51.82562 20.99882 1454 ft 89 kts 107°
2026-04-20 18:51 51.82290 21.00767 1482 ft 87 kts 109°
2026-04-20 18:51 51.82007 21.01634 1472 ft 88 kts 107°
2026-04-20 18:51 51.81788 21.02546 1504 ft 86 kts 103°
2026-04-20 18:52 51.81563 21.03451 1526 ft 88 kts 105°
2026-04-20 18:52 51.81325 21.04343 1580 ft 84 kts 104°
2026-04-20 18:52 51.81120 21.05191 1673 ft 81 kts 101°
2026-04-20 18:52 51.80943 21.06087 1596 ft 91 kts 96°
2026-04-20 18:53 51.80762 21.07029 1667 ft 84 kts 101°
2026-04-20 18:53 51.80590 21.07925 1682 ft 85 kts 101°
2026-04-20 18:53 51.80390 21.08809 1756 ft 81 kts 104°
2026-04-20 18:53 51.80149 21.09692 1678 ft 91 kts 104°
2026-04-20 18:54 51.79889 21.10630 1663 ft 92 kts 110°
2026-04-20 18:54 51.79495 21.11466 1666 ft 93 kts 118°
2026-04-20 18:54 51.79122 21.12252 1737 ft 89 kts 117°
2026-04-20 18:54 51.78730 21.13051 1727 ft 91 kts 118°
2026-04-20 18:55 51.78330 21.13806 1817 ft 86 kts 122°
2026-04-20 18:55 51.77902 21.14518 1823 ft 89 kts 122°
2026-04-20 18:55 51.77487 21.15326 1755 ft 92 kts 118°
2026-04-20 18:55 51.77090 21.16078 1826 ft 88 kts 119°
2026-04-20 18:56 51.76648 21.16842 1761 ft 95 kts 122°
2026-04-20 18:56 51.76215 21.17620 1774 ft 92 kts 120°
2026-04-20 18:56 51.75817 21.18473 1634 ft 101 kts 115°
2026-04-20 18:56 51.75418 21.19388 1580 ft 100 kts 117°
2026-04-20 18:57 51.75017 21.20317 1497 ft 101 kts 115°
2026-04-20 18:57 51.74616 21.21225 1503 ft 95 kts 116°
2026-04-20 18:57 51.74232 21.22033 1600 ft 86 kts 120°
2026-04-20 18:57 51.73841 21.22716 1706 ft 84 kts 122°
2026-04-20 18:58 51.73413 21.23427 1639 ft 95 kts 122°
2026-04-20 18:58 51.72976 21.24364 1398 ft 105 kts 117°
2026-04-20 18:58 51.72579 21.25245 1504 ft 92 kts 118°
2026-04-20 18:58 51.72208 21.26029 1554 ft 89 kts 118°
2026-04-20 18:59 51.71852 21.26853 1557 ft 90 kts 116°
2026-04-20 18:59 51.71457 21.27613 1572 ft 91 kts 123°
2026-04-20 18:59 51.71010 21.28319 1588 ft 92 kts 125°
2026-04-20 18:59 51.70543 21.29091 1517 ft 95 kts 123°
2026-04-20 19:00 51.70106 21.29897 1449 ft 100 kts 122°
2026-04-20 19:00 51.69629 21.30713 1412 ft 101 kts 125°
2026-04-20 19:00 51.69136 21.31524 1391 ft 100 kts 127°
2026-04-20 19:00 51.68650 21.32212 1530 ft 90 kts 131°
2026-04-20 19:01 51.68151 21.32794 1637 ft 88 kts 136°
2026-04-20 19:01 51.67607 21.33393 1554 ft 99 kts 135°
2026-04-20 19:01 51.67064 21.34081 1565 ft 97 kts 130°
2026-04-20 19:01 51.66572 21.34792 1589 ft 96 kts 129°
2026-04-20 19:02 51.66083 21.35516 1636 ft 91 kts 127°
2026-04-20 19:02 51.65663 21.36224 1735 ft 86 kts 119°
2026-04-20 19:02 51.65301 21.36952 1849 ft 81 kts 118°
2026-04-20 19:02 51.64936 21.37624 1976 ft 79 kts 123°
2026-04-20 19:03 51.64514 21.38263 1970 ft 89 kts 126°
2026-04-20 19:03 51.64041 21.39009 1880 ft 96 kts 123°
2026-04-20 19:03 51.63618 21.39796 1868 ft 95 kts 122°
2026-04-20 19:03 51.63128 21.40549 1817 ft 99 kts 127°
2026-04-20 19:04 51.62647 21.41296 1867 ft 91 kts 124°
2026-04-20 19:04 51.62263 21.42039 1987 ft 81 kts 112°
2026-04-20 19:04 51.61996 21.42858 1995 ft 87 kts 109°
2026-04-20 19:04 51.61724 21.43721 2047 ft 86 kts 107°
2026-04-20 19:05 51.61509 21.44635 2049 ft 87 kts 100°
2026-04-20 19:05 51.61347 21.45588 1992 ft 91 kts 96°
2026-04-20 19:05 51.61217 21.46546 2030 ft 83 kts 93°
2026-04-20 19:05 51.61137 21.47421 2156 ft 72 kts 93°
2026-04-20 19:06 51.61044 21.48187 2249 ft 74 kts 96°
2026-04-20 19:06 51.60925 21.49024 2221 ft 83 kts 99°
2026-04-20 19:06 51.60708 21.49952 2060 ft 95 kts 109°
2026-04-20 19:06 51.60451 21.50885 2038 ft 91 kts 102°
2026-04-20 19:07 51.60294 21.51785 2153 ft 81 kts 96°
2026-04-20 19:07 51.60153 21.52730 2062 ft 91 kts 98°
2026-04-20 19:07 51.59935 21.53661 2139 ft 86 kts 108°
2026-04-20 19:07 51.59647 21.54495 2179 ft 88 kts 109°
2026-04-20 19:08 51.59370 21.55361 2228 ft 87 kts 108°
2026-04-20 19:08 51.58839 21.57100 2339 ft 83 kts 108°
2026-04-20 19:08 51.58552 21.57924 2387 ft 83 kts 112°
2026-04-20 19:09 51.58288 21.58762 2365 ft 89 kts 106°
2026-04-20 19:09 51.58045 21.59710 2295 ft 91 kts 104°
2026-04-20 19:09 51.57822 21.60621 2337 ft 87 kts 101°
2026-04-20 19:09 51.57653 21.61587 2280 ft 90 kts 98°
2026-04-20 19:10 51.57459 21.62522 2319 ft 87 kts 103°
2026-04-20 19:10 51.57240 21.63399 2402 ft 82 kts 105°
2026-04-20 19:10 51.57017 21.64224 2479 ft 82 kts 105°
2026-04-20 19:10 51.56792 21.65092 2448 ft 89 kts 103°
2026-04-20 19:11 51.56592 21.66092 2276 ft 99 kts 97°
2026-04-20 19:11 51.56400 21.67163 2175 ft 100 kts 99°
2026-04-20 19:11 51.56198 21.68198 2153 ft 96 kts 98°
2026-04-20 19:11 51.56018 21.69254 1996 ft 101 kts 99°
2026-04-20 19:12 51.55877 21.70399 1765 ft 107 kts 91°
2026-04-20 19:12 51.55801 21.71560 1703 ft 100 kts 92°
2026-04-20 19:12 51.55668 21.72649 1621 ft 100 kts 101°
2026-04-20 19:12 51.55428 21.73664 1656 ft 94 kts 109°
2026-04-20 19:13 51.55121 21.74611 1616 ft 97 kts 110°
2026-04-20 19:13 51.54786 21.75564 1567 ft 98 kts 114°
2026-04-20 19:13 51.54428 21.76454 1587 ft 95 kts 118°
2026-04-20 19:13 51.53994 21.77215 1669 ft 89 kts 127°
2026-04-20 19:14 51.53542 21.77891 1732 ft 87 kts 124°
2026-04-20 19:14 51.53198 21.78713 1660 ft 92 kts 111°
2026-04-20 19:14 51.52969 21.79647 1675 ft 89 kts 102°
2026-04-20 19:14 51.52787 21.80613 1672 ft 90 kts 99°
2026-04-20 19:15 51.52621 21.81579 1671 ft 91 kts 99°
2026-04-20 19:15 51.52452 21.82569 1641 ft 92 kts 97°
2026-04-20 19:15 51.52334 21.83585 1635 ft 91 kts 93°
2026-04-20 19:15 51.52262 21.84548 1733 ft 84 kts 91°
2026-04-20 19:16 51.52245 21.85492 1749 ft 86 kts 86°
2026-04-20 19:16 51.52366 21.86369 1779 ft 76 kts 53°
2026-04-20 19:16 51.52778 21.86886 1707 ft 74 kts 30°
2026-04-20 19:16 51.53258 21.87184 1521 ft 76 kts 30°
2026-04-20 19:17 51.53719 21.87546 1443 ft 71 kts 31°
2026-04-20 19:17 51.54191 21.87932 1308 ft 77 kts 29°
2026-04-20 19:17 51.54649 21.87833 1223 ft 71 kts 327°
2026-04-20 19:17 51.54976 21.87315 1049 ft 58 kts 315°
2026-04-20 19:18 51.55233 21.86944 855 ft 41 kts 341°
2026-04-20 19:18 51.55421 21.86888 695 ft 25 kts
2026-04-20 19:18 51.55575 21.86860 456 ft 10 kts
2026-04-20 19:18 51.55578 21.86877 396 ft 3 kts 88°
2026-04-20 19:19 51.55570 21.86887 381 ft 0 kts 71°